STARLINK-37198

Last updated on Sun Apr 12 2026 00:02:09 GMT+0000 (Coordinated Universal Time)

1 68386U 26063G 26101.43150897 .00118041 00000+0 60721-3 0 9998 2 68386 97.2832 242.7947 0001161 84.3282 275.8118 15.80869790 2798
UTC large
Height (km)
Speed (km/s)
/
Latitude / Longitude
Inclination (degrees)
Orbital Period (minutes)
Azimuth
Elevation
Range (km)
Doppler Factor

Next 0 passes for location: London (51.5072 / 0.1276)

Sorry there are no passes over London.
STARLINK-37198